TimeCET,TemperatureF,Dew PointF,Humidity,Sea Level PressureIn,VisibilityMPH,Wind Direction,Wind SpeedMPH,Gust SpeedMPH,PrecipitationIn,Events,Conditions,WindDirDegrees,DateUTC
12:00 AM,35.6,33.8,93,29.62,6.2,SW,8.1,-,N/A,,Mostly Cloudy,220,2012-12-04 23:00:00
12:30 AM,35.6,35.6,100,29.62,6.2,SW,9.2,-,N/A,,Overcast,220,2012-12-04 23:30:00
1:00 AM,36,35,95,29.67,,SW,11.5,,,,Clear,230,2012-12-05 00:00:00
1:00 AM,35.6,35.6,100,29.62,6.2,SW,11.5,-,N/A,,Overcast,230,2012-12-05 00:00:00
1:30 AM,35.6,35.6,100,29.62,6.2,West,9.2,-,N/A,,Overcast,260,2012-12-05 00:30:00
2:00 AM,35.6,33.8,93,29.62,5.0,West,10.4,-,N/A,Rain,Light Rain,270,2012-12-05 01:00:00
2:30 AM,35.6,33.8,93,29.62,6.2,WSW,6.9,-,N/A,,Overcast,240,2012-12-05 01:30:00
3:00 AM,35.6,33.8,93,29.62,6.2,WSW,6.9,-,N/A,,Overcast,240,2012-12-05 02:00:00
3:30 AM,35.6,33.8,93,29.62,6.2,West,10.4,-,N/A,,Overcast,260,2012-12-05 02:30:00
4:00 AM,35.6,33.8,93,29.62,6.2,WSW,9.2,-,N/A,,Overcast,250,2012-12-05 03:00:00
4:30 AM,33.8,33.8,100,29.62,6.2,WSW,9.2,-,N/A,,Overcast,250,2012-12-05 03:30:00
5:00 AM,33.8,33.8,100,29.62,6.2,WSW,8.1,-,N/A,,Overcast,240,2012-12-05 04:00:00
5:30 AM,33.8,33.8,100,29.59,6.2,West,8.1,-,N/A,,Overcast,260,2012-12-05 04:30:00
6:00 AM,33.8,33.8,100,29.62,6.2,West,8.1,-,N/A,,Overcast,260,2012-12-05 05:00:00
6:30 AM,33.8,33.8,100,29.62,6.2,WSW,6.9,-,N/A,Rain,Light Rain,250,2012-12-05 05:30:00
7:00 AM,34,33,96,29.68,7,WSW,6.9,,,Rain,Light Rain,240,2012-12-05 06:00:00
7:00 AM,33.8,33.8,100,29.62,6.2,WSW,6.9,-,N/A,Rain,Light Rain,240,2012-12-05 06:00:00
7:30 AM,33.8,33.8,100,29.62,5.6,SW,8.1,-,N/A,,Overcast,230,2012-12-05 06:30:00
8:00 AM,33.8,33.8,100,29.62,6.2,WSW,9.2,-,N/A,,Overcast,240,2012-12-05 07:00:00
8:30 AM,33.8,33.8,100,29.65,6.2,WSW,8.1,-,N/A,,Overcast,240,2012-12-05 07:30:00
9:00 AM,33.8,33.8,100,29.65,6.2,West,6.9,-,N/A,Rain,Light Rain,260,2012-12-05 08:00:00
9:30 AM,33.8,33.8,100,29.65,6.2,West,5.8,-,N/A,,Overcast,270,2012-12-05 08:30:00
10:00 AM,35.6,33.8,93,29.68,6.2,West,4.6,-,N/A,,Overcast,260,2012-12-05 09:00:00
10:30 AM,35.6,33.8,93,29.68,6.2,WSW,6.9,-,N/A,,Overcast,250,2012-12-05 09:30:00
11:00 AM,35.6,33.8,93,29.68,6.2,WSW,6.9,-,N/A,,Overcast,240,2012-12-05 10:00:00
11:30 AM,35.6,33.8,93,29.68,6.2,WSW,6.9,-,N/A,,Overcast,240,2012-12-05 10:30:00
12:00 PM,35.6,33.8,93,29.68,6.2,WSW,5.8,-,N/A,,Overcast,240,2012-12-05 11:00:00
12:30 PM,35.6,33.8,93,29.68,6.2,SW,9.2,-,N/A,,Overcast,230,2012-12-05 11:30:00
1:00 PM,36,33,87,29.73,25,WSW,9.2,,,,Clear,240,2012-12-05 12:00:00
1:00 PM,35.6,33.8,93,29.68,6.2,WSW,9.2,-,N/A,,Mostly Cloudy,240,2012-12-05 12:00:00
1:30 PM,37.4,33.8,87,29.65,6.2,SW,8.1,-,N/A,,Mostly Cloudy,230,2012-12-05 12:30:00
2:00 PM,37.4,33.8,87,29.65,6.2,SW,8.1,-,N/A,,Overcast,230,2012-12-05 13:00:00
4:00 PM,35.6,32.0,87,29.65,6.2,SW,4.6,-,N/A,Rain,Light Rain,220,2012-12-05 15:00:00
4:30 PM,35.6,33.8,93,29.65,6.2,SW,5.8,-,N/A,,Light Drizzle,220,2012-12-05 15:30:00
5:00 PM,35.6,32.0,87,29.65,6.2,WSW,3.5,-,N/A,,Overcast,250,2012-12-05 16:00:00
5:30 PM,33.8,32.0,93,29.68,1.3,WSW,5.8,-,N/A,Snow,Snow,250,2012-12-05 16:30:00
6:00 PM,32.0,32.0,100,29.68,6.2,SSW,2.3,-,N/A,,Overcast,210,2012-12-05 17:00:00
6:30 PM,33.8,32.0,93,29.68,6.2,Variable,3.5,-,N/A,,Overcast,0,2012-12-05 17:30:00
7:00 PM,32,31,97,29.75,12,Calm,Calm,,,,Clear,,2012-12-05 18:00:00
7:00 PM,32.0,32.0,100,29.68,6.2,Calm,Calm,-,N/A,,Mostly Cloudy,0,2012-12-05 18:00:00
7:30 PM,32.0,30.2,93,29.68,5.6,Calm,Calm,-,N/A,,Overcast,0,2012-12-05 18:30:00
8:00 PM,32.0,32.0,100,29.68,6.2,WSW,3.5,-,N/A,,Overcast,240,2012-12-05 19:00:00
8:30 PM,32.0,32.0,100,29.68,5.0,WSW,3.5,-,N/A,,Mostly Cloudy,250,2012-12-05 19:30:00
9:00 PM,32.0,32.0,100,29.71,5.6,West,3.5,-,N/A,,Mostly Cloudy,260,2012-12-05 20:00:00
9:30 PM,30.2,30.2,100,29.71,5.6,West,3.5,-,N/A,,Unknown,260,2012-12-05 20:30:00
10:00 PM,30.2,30.2,100,29.71,6.2,West,4.6,-,N/A,,Scattered Clouds,260,2012-12-05 21:00:00
10:30 PM,32.0,32.0,100,29.71,6.2,West,8.1,-,N/A,,Mostly Cloudy,270,2012-12-05 21:30:00
11:00 PM,32.0,32.0,100,29.74,3.1,West,6.9,-,N/A,,Overcast,280,2012-12-05 22:00:00
11:30 PM,33.8,32.0,93,29.74,6.2,WNW,10.4,-,N/A,,Overcast,300,2012-12-05 22:30:00